Location: ??????
(38.1303°N, 24.0039°E)
Time: 09:39:28
(UTC+00:00)

ERBS - Pass Details

Date: 20 June 2021
Orbit: 397 x 416 km, 57.0° (Epoch: 02 August)

Event Time Altitude Azimuth Distance (km) Brightness Sun altitude
Exits shadow 00:52:05 87° 125° (SE) 402 2.0 -19.5°
Drops below altitude 10° 00:55:18 10° 43° (NE) 1,449 6.2 -19.1°
Sets 00:57:23 0° 43° (NE) 2,313 7.7 -18.9°
